Weather History for South Bend, IN

Change the Weather History Date:

Saturday, October 13, 2012

  Actual Average Record
Temperature  
Mean Temperature 54 °F 53 °F  
Max Temperature 66 °F 63 °F 86 °F (1975)
Min Temperature 41 °F 43 °F 26 °F (1909)
Degree Days  
Heating Degree Days 11 12  
Month to date heating degree days 189 134  
Since 1 July heating degree days 332 268  
Cooling Degree Days 0 0  
Month to date cooling degree days 2 8  
Year to date cooling degree days 1110 772  
Moisture  
Dew Point 46 °F    
Average Humidity 73    
Maximum Humidity 93    
Minimum Humidity 53    
Precipitation  
Precipitation 0.59 in 0.11 in 1.08 in (1973)
Month to date precipitation 1.26 1.44  
Year to date precipitation 27.87 30.24  
Snow  
Snow 0.00 in 0.00 in 0.00 in (2002)
Month to date snowfall 0.0 0.1  
Since 1 July snowfall 0.0 0.1  
Since 1 September snowfall 0.1  
Snow Depth 0.00 in    
Sea Level Pressure  
Sea Level Pressure 30.06 in    
Wind  
Wind Speed 11 mph (South)    
Max Wind Speed 20 mph    
Max Gust Speed 25 mph    
Visibility 7 miles    
Events Rain    
T = Trace of Precipitation, MM = Missing Value Source: NWS Daily Summary

Daily Weather History Graph

Daily Weather History Graph

Search for Another Location

Airport:

Trip Planner

Search our weather history database for the weather conditions in past years. The results will help you decide how hot, cold, wet, or windy it might be!

Date:

Astronomy

Oct. 13, 2012 Rise Set
Actual Time 7:55 AM EDT 7:06 PM EDT
Civil Twilight 7:27 AM EDT 7:34 PM EDT
Nautical Twilight 6:55 AM EDT 8:06 PM EDT
Astronomical Twilight 6:23 AM EDT 8:38 PM EDT
Moon 5:43 AM EDT (10/13) 5:50 PM EDT (10/13)
Length of Visible Light 12h 06m
Length of Day
11h 10m
Waning Crescent, 5% of the Moon is Illuminated
Oct 13
Waning Crescent
Oct 15
New
Oct 21
First Quarter
Oct 29
Full
Nov 6
Last Quarter

Hourly Weather History & Observations

Time (EDT) Temp. Windchill Dew Point Humidity Pressure Visibility Wind Dir Wind Speed Gust Speed Precip Events Conditions
12:54 AM 41.0 °F 35.8 °F 26.1 °F 55% 30.33 in 10.0 mi SE 8.1 mph - N/A   Clear
1:54 AM 43.0 °F 36.8 °F 27.0 °F 53% 30.31 in 10.0 mi SE 11.5 mph - N/A   Clear
2:54 AM 42.1 °F 35.2 °F 28.0 °F 58% 30.31 in 10.0 mi SE 12.7 mph - N/A   Clear
3:54 AM 42.1 °F 35.7 °F 28.9 °F 60% 30.29 in 10.0 mi SE 11.5 mph - N/A   Clear
4:54 AM 42.1 °F 36.6 °F 28.9 °F 60% 30.27 in 10.0 mi SSE 9.2 mph - N/A   Mostly Cloudy
5:54 AM 44.1 °F 38.6 °F 28.9 °F 55% 30.22 in 10.0 mi SSE 10.4 mph - N/A   Scattered Clouds
6:54 AM 45.0 °F 39.7 °F 30.0 °F 56% 30.21 in 10.0 mi SSE 10.4 mph - 0.00 in Rain Light Rain
7:54 AM 46.9 °F - 30.9 °F 54% 30.19 in 10.0 mi South 11.5 mph - 0.00 in   Overcast
8:54 AM 48.0 °F - 34.0 °F 58% 30.18 in 10.0 mi SSE 10.4 mph - N/A   Overcast
9:54 AM 50.0 °F - 36.0 °F 59% 30.17 in 10.0 mi SE 9.2 mph - N/A   Overcast
10:54 AM 51.1 °F - 37.0 °F 59% 30.14 in 10.0 mi SE 8.1 mph - N/A   Overcast
11:54 AM 53.1 °F - 39.0 °F 59% 30.12 in 10.0 mi SE 6.9 mph - N/A   Overcast
12:54 PM 55.9 °F - 46.0 °F 69% 30.07 in 10.0 mi SSE 10.4 mph - 0.01 in Rain Light Rain
1:23 PM 55.4 °F - 48.2 °F 77% 30.04 in 9.0 mi South 9.2 mph - 0.00 in Rain Light Rain
1:51 PM 53.6 °F - 48.2 °F 82% 30.05 in 2.5 mi SSW 9.2 mph - N/A Rain Light Rain
1:54 PM 53.1 °F - 50.0 °F 89% 30.06 in 2.5 mi South 9.2 mph - 0.12 in Rain Light Rain
2:33 PM 53.6 °F - 50.0 °F 88% 30.01 in 2.5 mi South 9.2 mph - 0.15 in Rain Light Rain
2:49 PM 53.6 °F - 51.8 °F 94% 30.00 in 3.0 mi South 10.4 mph - 0.20 in Rain Rain
2:54 PM 53.1 °F - 51.1 °F 93% 30.00 in 4.0 mi South 10.4 mph - 0.20 in Rain Rain
3:54 PM 55.9 °F - 53.1 °F 90% 29.96 in 4.0 mi South 10.4 mph - 0.04 in Rain Rain
4:54 PM 60.1 °F - 57.0 °F 90% 29.93 in 6.0 mi SSW 11.5 mph 20.7 mph 0.03 in Rain Light Rain
5:54 PM 62.1 °F - 59.0 °F 90% 29.90 in 7.0 mi SSW 18.4 mph 24.2 mph 0.03 in   Overcast
6:38 PM 62.6 °F - 60.8 °F 94% 29.90 in 5.0 mi SSW 15.0 mph - 0.00 in Rain Light Rain
6:54 PM 63.0 °F - 60.1 °F 90% 29.89 in 5.0 mi SSW 11.5 mph - 0.00 in Rain Light Rain
7:18 PM 62.6 °F - 60.8 °F 94% 29.90 in 2.0 mi SSW 11.5 mph - 0.07 in Rain Heavy Rain
7:33 PM 62.6 °F - 60.8 °F 94% 29.88 in 6.0 mi SSW 13.8 mph 19.6 mph 0.08 in   Overcast
7:54 PM 62.6 °F - 60.8 °F 94% 29.89 in 5.0 mi SSW 11.5 mph - N/A   Overcast
8:54 PM 63.0 °F - 60.1 °F 90% 29.90 in 5.0 mi SSW 13.8 mph - 0.08 in   Overcast
9:54 PM 64.4 °F - 60.8 °F 88% 29.90 in 5.0 mi SSW 11.5 mph - N/A   Overcast
10:54 PM 64.9 °F - 61.0 °F 87% 29.89 in 7.0 mi SSW 12.7 mph - N/A   Overcast
11:54 PM 66.2 °F - 60.8 °F 83% 29.87 in 7.0 mi SSW 12.7 mph - N/A   Mostly Cloudy